EW1011 Weather Reports


time (UTC)temp
C
wind
direction
speed
KPH
gust
KPH
rain 1hr
cm
rain 24hr
cm
rain mn
cm
humidity
%
barometer
mb
20260504214542 23 7 0.0 8.0 0.00 0.00 0.00 37 1008.5
20260504213038 23 72 0.0 16.1 0.00 0.00 0.00 36 1008.5
20260504211536 23 106 1.6 8.0 0.00 0.00 0.00 35 1008.7
20260504210050 23 260 0.0 12.9 0.00 0.00 0.00 35 1008.5
20260504204552 24 175 0.0 8.0 0.00 0.00 0.00 37 1008.7
20260504203036 24 97 0.0 6.4 0.00 0.00 0.00 34 1008.7
20260504201532 24 221 0.0 4.8 0.00 0.00 0.00 35 1008.8
20260504200032 24 125 0.0 8.0 0.00 0.00 0.00 35 1008.9
20260504194530 25 142 0.0 3.2 0.00 0.00 0.00 34 1009.2
20260504193030 24 106 0.0 8.0 0.00 0.00 0.00 34 1009.4
20260504191531 25 146 0.0 8.0 0.00 0.00 0.00 33 1009.8
20260504190026 25 107 1.6 12.9 0.00 0.00 0.00 33 1009.9
20260504184527 24 200 0.0 14.5 0.00 0.00 0.00 35 1010.2
20260504183025 24 80 3.2 11.3 0.00 0.00 0.00 31 1010.4
20260504181523 25 106 1.6 9.7 0.00 0.00 0.00 30 1010.4
20260504180022 23 123 0.0 8.0 0.00 0.00 0.00 31 1010.6
20260504174521 23 162 1.6 9.7 0.00 0.00 0.00 30 1010.8
20260504173020 23 258 3.2 11.3 0.00 0.00 0.00 31 1010.9
20260504171518 22 264 0.0 8.0 0.00 0.00 0.00 33 1011.1
20260504081509 9 260 0.0 0.0 0.00 0.00 0.00 68 1014.0
20260504044550 6 260 0.0 0.0 0.00 0.00 0.00 75 1014.5
20260504043054 6 260 0.0 0.0 0.00 0.00 0.00 75 1014.4
20260504041546 6 260 0.0 0.0 0.00 0.00 0.00 75 1014.4
20260504040045 7 260 0.0 0.0 0.00 0.00 0.00 73 1014.2
20260504034550 7 260 0.0 0.0 0.00 0.00 0.00 74 1014.1
20260504033042 7 260 0.0 0.0 0.00 0.00 0.00 75 1014.0
20260504031543 7 260 0.0 0.0 0.00 0.00 0.00 72 1013.8
20260504030040 7 260 0.0 0.0 0.00 0.00 0.00 71 1013.9
20260504024546 7 260 0.0 0.0 0.00 0.00 0.00 70 1013.7
20260504023039 8 260 0.0 0.0 0.00 0.00 0.00 67 1013.8
20260504021540 8 260 0.0 0.0 0.00 0.00 0.00 65 1013.7
20260504020041 8 260 0.0 0.0 0.00 0.00 0.00 63 1013.6
20260504014539 8 260 0.0 0.0 0.00 0.00 0.00 60 1013.6
20260504013053 9 260 0.0 0.0 0.00 0.00 0.00 60 1013.5
20260504011536 10 260 0.0 0.0 0.00 0.00 0.00 57 1013.5
20260504010040 10 260 0.0 0.0 0.00 0.00 0.00 55 1013.4
20260504004536 11 260 0.0 0.0 0.00 0.00 0.00 51 1013.3
20260504003035 11 260 0.0 0.0 0.00 0.00 0.00 46 1013.0
20260504001538 12 260 0.0 0.0 0.00 0.00 0.00 43 1013.0
20260504000033 13 260 0.0 0.0 0.00 0.00 0.00 39 1012.9
20260503234534 15 260 0.0 1.6 0.00 0.00 0.00 33 1012.6
20260503233033 16 262 0.0 3.2 0.00 0.00 0.00 30 1012.5
20260503231533 16 262 0.0 4.8 0.00 0.00 0.00 29 1012.5
20260503230039 16 227 0.0 4.8 0.00 0.00 0.00 29 1012.5
20260503224532 17 198 0.0 9.7 0.00 0.00 0.00 28 1012.5
20260503223031 17 246 0.0 6.4 0.00 0.00 0.00 27 1012.5
20260503221532 17 243 0.0 6.4 0.00 0.00 0.00 29 1012.5
20260503220031 17 202 0.0 6.4 0.00 0.00 0.00 28 1012.5